Location: Bannatyne
(13.0833°N, 59.5333°W)
Time: 03:29:43
(UTC+00:00)

deb Explorer IX - Pass Details

Date: 01 February 2020
Orbit: 549 x 1099 km, 38.8° (Epoch: 17 February)

Event Time Altitude Azimuth Distance (km) Brightness Sun altitude
Rises 07:13:17 0° 293° (WNW) 3,881 - -46.1°
Reaches altitude 10° 07:16:26 10° 284° (WNW) 2,890 - -45.3°
Maximum altitude 07:22:31 31° 224° (SW) 1,676 - -43.9°
Drops below altitude 10° 07:28:06 10° 164° (SSE) 2,626 - -42.5°
Exits shadow 07:28:34 - 162° (SSE) 2,766 ? -42.4°
Sets 07:30:50 0° 154° (SSE) 3,479 ? -41.9°
